This is the latest recevied weather packets stored in our database for station/object WB5LFS-1. If no packets are shown the sender has not sent any weather packets the latest 10 day(s).
| Time | Temp. | Humidity | Pressure | Rain* | Wind** | Luminosity | Snow |
|---|---|---|---|---|---|---|---|
| 1777539417 | 15° C | 96% | 1007.3 hPa | 0 mm | - | - | - |
| 1777538517 | 15° C | 95% | 1007.2 hPa | 0 mm | - | - | - |
| 1777537617 | 14.44° C | 95% | 1007.3 hPa | 0 mm | - | - | - |
| 1777536717 | 14.44° C | 95% | 1007.2 hPa | 0 mm | - | - | - |
| 1777535817 | 15° C | 94% | 1007.2 hPa | 0 mm | - | - | - |
| 1777534917 | 15° C | 94% | 1007 hPa | 0 mm | - | - | - |
| 1777534017 | 15° C | 94% | 1007.2 hPa | 0 mm | - | - | - |
| 1777533117 | 15° C | 94% | 1007.3 hPa | 0 mm | - | - | - |
| 1777532217 | 15° C | 92% | 1007 hPa | 0 mm | - | - | - |
| 1777531317 | 15.56° C | 92% | 1006.9 hPa | 0 mm | - | - | - |
| 1777530417 | 15.56° C | 91% | 1006.8 hPa | 0 mm | - | - | - |
| 1777529517 | 16.11° C | 90% | 1006.9 hPa | 0 mm | - | - | - |
| 1777528617 | 16.67° C | 90% | 1006.9 hPa | 0 mm | - | - | - |
| 1777527717 | 16.67° C | 89% | 1007.1 hPa | 0 mm | - | - | - |
| 1777526817 | 16.67° C | 89% | 1007.3 hPa | 0 mm | - | - | - |
| 1777525917 | 16.67° C | 89% | 1007.6 hPa | 0 mm | - | - | - |
| 1777525017 | 16.67° C | 89% | 1007.6 hPa | 0 mm | - | - | - |
| 1777524117 | 16.11° C | 88% | 1007.6 hPa | 0 mm | - | - | - |
| 1777523217 | 16.11° C | 87% | 1007.7 hPa | 0 mm | - | - | - |
| 1777522317 | 16.67° C | 87% | 1007.5 hPa | 0 mm | - | - | - |
| 1777521417 | 16.67° C | 86% | 1007.6 hPa | 0 mm | - | - | - |
| 1777520517 | 16.67° C | 86% | 1007.7 hPa | 0 mm | - | - | - |
| 1777519617 | 16.67° C | 85% | 1007.7 hPa | 0 mm | - | - | - |
| 1777518717 | 16.67° C | 85% | 1007.8 hPa | 0 mm | - | - | - |
| 1777517817 | 16.67° C | 85% | 1008 hPa | 0 mm | - | - | - |
* Rain latest hour (hover to see other rain measurements)
** Current wind speed in m/s (hover to see current wind gust speed)